Flag for Germany Weather past 2 weeks in Leverkusen, North Rhine-Westphalia, Germany

Now
43 °F

Passing clouds.


Feels Like: 40 °F
Forecast: 36 / 61 °F
Wind: 5 mph from North

Location: Koeln / Bonn


UV Index: 3 (Moderate)

Visibility: N/A


Pressure: 29.98 "Hg

Humidity: 76%

Dew point: 36 °F

Location of LeverkusenLocation

Historic Weather in Leverkusen

°F

Leverkusen temperature yesterday

Maximum temperature yesterday: 66 °F (at 5:20 PM)
Minimum temperature yesterday: 39 °F (at 2:50 AM)
Average temperature yesterday: 53 °F

Past Weeks' High & Low Weather Summary

 TemperatureHumidityPressure
High72 °F (Apr 7, 3:50 PM)100% (Apr 6, 4:20 AM)30.45 "Hg (Apr 6, 4:20 AM)
Low28 °F (Apr 16, 6:20 AM)26% (Apr 17, 4:20 PM)29.68 "Hg (Apr 3, 10:20 PM)
Average52 °F68%30.07 "Hg
* Reported Apr 3 10:20 PM — Apr 18 10:20 PM, Leverkusen, Weather by CustomWeather, © 2014

Note: Actual official high and low records may vary slightly from our data, if they occured in-between our weather recording intervals... More about our weather records

Advertising

Historic Weather Conditions — Data for Previous 24 hours

 ConditionsComfort  
Time TempWeatherWind HumidityBarometerVisibility
10:20 PM
Apr 18
45 °FPassing clouds.7 mph71%29.95 "HgN/A
9:50 PM46 °FPassing clouds.8 mph71%29.95 "HgN/A
9:20 PM46 °FPartly sunny.7 mph66%29.95 "HgN/A
8:50 PM50 °FBroken clouds.6 mph58%29.95 "HgN/A
8:20 PM50 °FPartly sunny.8 mph58%29.95 "HgN/A
7:50 PM52 °FSunny.10 mph54%29.92 "Hg10 mi
7:20 PM52 °FSunny.17 mph50%29.92 "Hg10 mi
6:50 PM54 °FScattered showers. Scattered clouds.13 mph44%29.92 "HgN/A
6:20 PM54 °FSunny.16 mph44%29.92 "Hg10 mi
5:50 PM54 °FSunny.8 mph41%29.92 "Hg10 mi
5:20 PM52 °FSunny.13 mph44%29.95 "Hg10 mi
4:50 PM52 °FSunny.17 mph44%29.95 "Hg10 mi
4:20 PM52 °FSunny.18 mph41%29.95 "Hg10 mi
3:20 PM52 °FScattered clouds.13 mph47%29.95 "HgN/A
2:50 PM54 °FScattered clouds.16 mph41%29.92 "HgN/A
2:20 PM52 °FPartly sunny.14 mph44%29.95 "HgN/A
1:50 PM54 °FPartly sunny.16 mph51%29.95 "HgN/A
1:20 PM50 °FScattered clouds.17 mph47%29.95 "HgN/A
12:50 PM52 °FScattered clouds.17 mph62%29.95 "HgN/A
12:20 PM52 °FPartly sunny.14 mph58%29.95 "HgN/A
11:50 AM48 °FPartly sunny.20 mph58%29.95 "HgN/A
11:20 AM50 °FScattered clouds.14 mph62%29.95 "HgN/A
10:50 AM48 °FScattered showers. Scattered clouds.13 mph66%29.95 "HgN/A
10:20 AM46 °FBroken clouds.10 mph76%29.95 "HgN/A
9:50 AM45 °FBroken clouds.10 mph81%29.95 "HgN/A
9:20 AM45 °FBroken clouds.10 mph81%29.92 "HgN/A
8:50 AM45 °FBroken clouds.9 mph87%29.92 "HgN/A
8:20 AM45 °FPartly sunny.7 mph87%29.92 "HgN/A
7:50 AM45 °FPassing clouds.8 mph87%29.92 "HgN/A
7:20 AM43 °FPassing clouds.12 mph93%29.92 "HgN/A
6:50 AM45 °FPassing clouds.12 mph87%29.89 "HgN/A
6:20 AM45 °FPartly cloudy.13 mph93%29.89 "HgN/A
5:50 AM45 °FPassing clouds.10 mph93%29.89 "Hg6 mi
5:20 AM46 °FPassing clouds.12 mph93%29.89 "Hg6 mi
4:50 AM46 °FLight rain. Partly cloudy.9 mph93%29.89 "Hg6 mi
4:20 AM46 °FLight rain. Partly cloudy.7 mph93%29.89 "Hg5 mi
3:50 AM46 °FLight rain. Partly cloudy.10 mph93%29.89 "Hg5 mi
3:20 AM46 °FLight rain. Passing clouds.13 mph93%29.89 "Hg6 mi
2:50 AM46 °FLight rain. Passing clouds.14 mph93%29.89 "Hg6 mi
2:20 AM48 °FLight rain. Partly cloudy.17 mph87%29.89 "Hg6 mi
1:20 AM54 °FClear.17 mph63%29.89 "Hg10 mi
12:50 AM55 °FClear.14 mph51%29.89 "Hg10 mi
12:20 AM55 °FClear.8 mph44%29.89 "Hg10 mi
11:50 PM
Apr 17
57 °FClear.8 mph39%29.89 "Hg10 mi
11:20 PM57 °FPassing clouds.9 mph36%29.92 "HgN/A
Weather by CustomWeather, © 2014

See weather overview